Regional Weather Roundup
Issued by NWS Little Rock, AR

Home | Current Version | Previous Version | Text Only | Print | Product List | Glossary Off
Versions: 1 2 3 4 5 6 7 8 9 10 11 12 13 14 15 16 17 18 19 20 21 22 23 24 25 26 27 28 29 30 31 32 33 34 35 36 37 38 39 40 41 42 43 44 45 46 47 48 49 50

000
ASUS44 KLZK 210905
RWRLZK

WEATHER ROUNDUP FOR ARKANSAS
NATIONAL WEATHER SERVICE LITTLE ROCK AR
400 AM CDT SUN SEP 21 2014

NOTE: "FAIR" INDICATES FEW OR NO CLOUDS BELOW 12,000 FEET WITH NO
SIGNIFICANT WEATHER AND/OR OBSTRUCTIONS TO VISIBILITY.

ARZ001-003-010-029-211000-
NORTHWEST ARKANSAS

CITY           SKY/WX    TMP DP  RH WIND       PRES   REMARKS
FAYETTEVILLE   PTCLDY    65  65 100 S6        30.06S
FORT SMITH     CLEAR     71  68  90 CALM      30.03S
HARRISON       CLEAR     66  65  96 CALM      30.04F
BENTONVILLE    CLOUDY    70  64  83 SW3       30.06S
ROGERS         MOCLDY    71  66  84 SW7       30.06S
SILOAM SPGS    MOCLDY    68  63  83 CALM      30.06F
HIGHFILL       LGT RAIN  68  66  93 SW3       30.05S
$$

ARZ004-005-016-211000-
NORTH CENTRAL ARKANSAS

CITY           SKY/WX    TMP DP  RH WIND       PRES   REMARKS
BATESVILLE     CLEAR     68  64  88 NW3       30.00S
FLIPPIN        CLEAR     70  63  78 S3        30.02S
MTN HOME       PTCLDY    69  66  90 W3        30.01F
$$

ARZ040-041-211000-
WEST CENTRAL ARKANSAS

CITY           SKY/WX    TMP DP  RH WIND       PRES   REMARKS
MENA             N/A     66  64  94 CALM      30.06S
MOUNT IDA      CLEAR     66  64  93 CALM      30.02S FOG
$$

ARZ009-017-025-026-028-211000-
NORTHEAST ARKANSAS

CITY           SKY/WX    TMP DP  RH WIND       PRES   REMARKS
CORNING          N/A     68  68 100 W7        29.97S
JONESBORO      CLEAR     71  67  87 W5        29.98S
NEWPORT        CLEAR     68  66  93 SW7       30.00F
WALNUT RIDGE   CLEAR     70  55  60 SW6       29.97S
BLYTHEVILLE    CLEAR     71  68  90 SW7       29.97F
$$

ARZ022-023-033-042-044-211000-
CENTRAL ARKANSAS

CITY           SKY/WX    TMP DP  RH WIND       PRES   REMARKS
LITTLE ROCK    CLEAR     71  67  87 W5        30.01S
N LITTLE ROCK    N/A     73  68  83 W5        30.01S
JACKSONVILLE   CLEAR     67  66  95 W3        30.01S
SEARCY         CLEAR     66  66 100 CALM      30.01F
HOT SPRINGS    CLEAR     68  67  96 W3        30.03S
RUSSELLVILLE   CLEAR     67  66  97 CALM      30.02S FOG
CLINTON        FAIR      64  64 100 CALM      30.03S FOG
$$

ARZ036-211000-
EAST ARKANSAS

CITY           SKY/WX    TMP DP  RH WIND       PRES   REMARKS
WEST MEMPHIS   CLEAR     67  67 100 CALM      29.98F
$$

ARZ050-053-066-070-073-211000-
SOUTHWEST ARKANSAS

CITY           SKY/WX    TMP DP  RH WIND       PRES   REMARKS
ARKADELPHIA    FOG       68  68 100 CALM      30.02S VSB 1/4
CAMDEN         FOG       66  64  94 CALM      30.00S VSB 1/2
TEXARKANA      CLEAR     69  68  96 CALM      30.02S
EL DORADO      CLEAR     67  67 100 CALM      30.01S
DE QUEEN       PTCLDY    67  67 100 CALM      30.01S FOG
$$

ARZ056-057-069-211000-
SOUTHEAST ARKANSAS

CITY           SKY/WX    TMP DP  RH WIND       PRES   REMARKS
PINE BLUFF     CLEAR     67  65  93 CALM      30.00S
STUTTGART      CLEAR     70  66  88 CALM      30.01S
MONTICELLO     CLEAR     69  66  90 CALM      30.00S

$$




USA.gov is the U.S. government's official web portal to all federal, state and local government web resources and services.